FENGYUN 1C DEB, 31188

Orbit data source: Space-Track

FENGYUN 1C DEB, 31188 is space debris in SSO originally from a launch on Mon, 10 May 1999 UTC launched from the Taiyaun Space Center, China (TSC). Fengyun 1C debris stems from the Chinese weather satellite Fengyun-1C, which was intentionally destroyed by a Chinese anti-satellite missile in 2007. This event dramatically increased the amount of space debris, with thousands of trackable fragments posing hazards to satellites and human spaceflight. The Fengyun 1C debris cloud has become a focal point in discussions about space sustainability and the need for international regulations to prevent the creation of new debris.

Loading next visibility...
Identifier
31188, 1999-025BJS
Orbit
SSO
Country
Flag of CNCN / PRC
Related business
Manufacturer
Unknown
Mission
Spacecraft
Bus & Motor
Unknown
Mass
Unknown
Launch date (UTC)
1999-05-10 (27 years ago)
Launch vehicle
Unknown
Launch site
Taiyaun Space Center, China (TSC)
Object type
Payload
Rocket body
Debris
Shape & HBR
Unknown shape, 0.1 m
Radar Cross Section
Small (<0.1 m²)

Expand to show TLE details & history
Last TLE update: 1 week ago

TLE from 1 week ago
0 FENGYUN 1C DEB
1 31188U 99025BJS 26154.88192449  .00003095  00000-0  13161-2 0  9990
2 31188  98.7332 226.8001 0060944 109.2937 317.6341 14.24954897988012
Epoch: 2026-06-03T21:09Z
TLE epoch observation values (Epoch: 2026-06-03T21:09:58.275Z)
Latitude
65.06317°
Longitude
-2.21187°
Altitude
787.592 km
Speed
7.483 km/s
True Right ascension
13h 50m 27s
True Declination
64° 55' 55"
Sunlit
Object was in daylight at epoch
Visualization orbit readout
Latitude
Unknown
Longitude
Unknown
Altitude
Unknown
Speed
Unknown
Apparent Right ascension
Unknown
Apparent Declination
Unknown
Sunlit
N/A
Visualization observer readout
Local Sidereal Time
02:43:08
Azimuth
Unknown
Elevation
Unknown
Doppler factor
Unknown
Orbital elements
Apogee altitude
849.579 km
Perigee altitude
762.015 km
Semi-major axis
7,183.934 km
Eccentricity
0.00609
Inclination
98.7332°
RAAN
226.8001°
Arg. of periapsis
109.2937°
True anomaly
317.16084°
Mean anomaly
317.6341°
Eccentric anomaly
317.39774°
Mean motion
3.56451 °/min
Orbital period
101 mins
BSTAR
0.0013161
Loading maneuver chart data...
Computing Atmospheric mass density...

Documentation

Showing up to 5 results
|